{"data":{"norad_id":55801,"epoch":"2026-05-25T02:31:40.763424Z","epoch_age_seconds":69038,"freshness":"FRESH","line1":"1 55801U 23029F   26145.10533291  .00000027  00000+0  33904-4 0  9998","line2":"2 55801  87.9167 279.0578 0002308  98.4002 261.7393 13.20772249158106","mean_motion":13.20772249,"eccentricity":0.0002308,"inclination_deg":87.9167,"raan_deg":279.0578,"arg_perigee_deg":98.4002,"mean_anomaly_deg":261.7393,"bstar":3.3904e-5,"rev_number":15810,"period_min":109.02712417605,"perigee_km":1180.0268818139,"apogee_km":1183.5165356739,"semimajor_km":7559.9087087439,"source":"CELESTRAK","updated_at":"2026-05-25T13:38:22.688930Z"}}